Back to catalog

SL-8 DEB

AliveLEO
NORAD 12151·DEBRIS·🇷🇺 Russia

Launched Jan 21, 1981 from Plesetsk Cosmodrome

Loading…

Next Passes (next 24 hours)

TLE

FreshSource: Space-Track

Epoch: Sep 14, 2026, 08:15 UTC

1 12151U 81006C   26257.34408749 -.00000036  00000-0  46822-4 0  9992
2 12151  65.8231 185.9058 0006686  26.5839  58.7103 13.74096258289077

Track SL-8 DEB in real time with AllMySat

Download on the App Store